Regional Weather Roundup
Issued by NWS Binghamton, NY

Home | Current Version | Previous Version | Text Only | Print | Product List | Glossary On
Versions: 1 2 3 4 5 6 7 8 9 10 11 12 13 14 15 16 17 18 19 20 21 22 23 24 25 26 27 28 29 30 31 32 33 34 35 36 37 38 39 40 41 42 43 44 45 46 47 48 49 50
000
ASUS41 KBGM 252010
RWRBGM

REGIONAL WEATHER ROUNDUP
NATIONAL WEATHER SERVICE BINGHAMTON NY
400 PM EDT WED MAY 25 2016

Note: "fair" indicates few or no clouds below 12,000 feet with no
significant weather and/or obstructions to visibility.

* = Station(s) that does not report precipitation, such as rain,
snow, etc, also no thunder or fog.

NYZ009-015>018-022>025-036-037-044>046-055>057-062-252100
...Central New York...

CITY           SKY/WX    TMP DP  RH WIND       PRES   REMARKS
Binghamton     CLOUDY    79  48  33 NW8       30.09S
Cortland       PTSUNNY   81  52  36 W5        30.07F
Dansville      CLOUDY    85  49  28 W8G20     30.06F
Elmira         CLOUDY    86  50  28 NW12      30.05S
Ithaca         CLOUDY    81  52  36 W7        30.08F
Hamilton       SUNNY     82  48  30 NW12G17   30.06F
Hornell        PTSUNNY   82  50  32 W14G20    30.11F
Monticello     SUNNY     82  46  28 W12G17    30.08S
Penn Yan       CLOUDY    85  49  28 W12G22    30.06F
Rome           SUNNY     80  53  39 W18G24    30.04S
Sidney         CLOUDY    81  52  36 NW8       30.07S
Syracuse       PTSUNNY   83  53  35 NW7       30.02F
$$

PAZ038>040-043-044-047-048-072-252100
...Northeast Pennsylvania...

CITY           SKY/WX    TMP DP  RH WIND       PRES   REMARKS
Hazleton       SUNNY     82  45  26 W7        30.14F
Scranton       SUNNY     85  46  25 SW10G17   30.06F
$$
&&
KEY
WCI = Wind Chill Index
VSB = Visibility
HX  = Heat Index
$$



USA.gov is the U.S. government's official web portal to all federal, state and local government web resources and services.